{"data":{"norad_id":67294,"intl_designator":"2025-313AY","name":"SITRO-AIS-63","alt_names":[],"object_type":"PAYLOAD","status":"ACTIVE","operator":null,"country":"CIS","launch_date":"2025-12-28","launch_site_code":"VOSTO","launch_vehicle":null,"mission":null,"orbit_class":"UNKNOWN","rcs_meters":null,"size_class":null,"mass_kg":null,"dimensions":null,"purposes":[],"wikipedia_slug":null,"has_3d_model":false,"image_url":null,"decayed_at":null,"tle_current":{"epoch":"2026-09-20T22:58:07.108608Z","epoch_age_seconds":63577,"freshness":"FRESH","line1":"1 67294U 25313AY  26263.95702672  .00006282  00000+0  24263-3 0  9996","line2":"2 67294  97.3865 337.9426 0008894  28.3139 331.8582 15.26580225 40580","mean_motion":15.26580225,"eccentricity":0.0008894,"inclination_deg":97.3865,"raan_deg":337.9426,"arg_perigee_deg":28.3139,"mean_anomaly_deg":331.8582,"bstar":0.00024263,"rev_number":4058,"period_min":94.328485094847,"perigee_km":479.9394128197,"apogee_km":492.14941872207,"semimajor_km":6864.1814157709,"source":"CELESTRAK","updated_at":"2026-09-21T09:00:16.551073Z"}}}